Location: Amsterdam
(30.7274°N, 84.4357°W)
Time: 08:37:05
(UTC+00:00)

Transit 2A Rocket - Pass Details

Date: 08 February 2026
Orbit: 583 x 900 km, 66.7° (Epoch: 7 March)

Event Time Altitude Azimuth Distance (km) Brightness Sun altitude
Rises 01:12:23 0° 255° (WSW) 3,456 9.7 -24.7°
Reaches altitude 10° 01:16:13 10° 280° (W) 2,554 8.7 -25.5°
Maximum altitude 01:19:12 14° 310° (NW) 2,296 8.0 -26.2°
Drops below altitude 10° 01:22:13 10° 340° (NNW) 2,577 7.9 -26.8°
Sets 01:26:09 0° 5° (N) 3,510 8.4 -27.7°
